EZY2065 EGCC-LGKO

Flight info

Callsign EZY2065
Flight time N/A
Altitude 37000
Route DESIG1S DESIG L603 DOLAS DCT NAVPI DCT DODEN DCT NEGIX DCT DINKU DCT BESNI DCT LATLO DCT OBEDI DCT BERTA DCT TEBLI DCT TIVNU DCT MEDUX UM867 KOGAT DCT ERANA UL737 TSL UN130 MES UN139 LURUS L995 KOPAR KOPAR1M
Aircraft A319/M-SDE3FGHIRWY/LB1

Departure

Time N/A
Airport Manchester Airport (EGCC)

Arrival

Time 2026-05-06 11:44
Airport Kos International Airport "Ippokratis" (LGKO)
Time Latitude Longitude Altitude Speed Heading
2026-05-06 11:30 36.86168 26.59664 14117 ft 411 kts 110°
2026-05-06 11:30 36.85069 26.62909 14110 ft 411 kts 110°
2026-05-06 11:31 36.83949 26.66195 14115 ft 411 kts 111°
2026-05-06 11:31 36.82583 26.69320 13933 ft 407 kts 123°
2026-05-06 11:31 36.80789 26.71971 13801 ft 393 kts 131°
2026-05-06 11:31 36.78975 26.74443 13666 ft 379 kts 131°
2026-05-06 11:32 36.77231 26.76834 13531 ft 366 kts 130°
2026-05-06 11:32 36.75547 26.79153 13399 ft 354 kts 130°
2026-05-06 11:32 36.73917 26.81397 13269 ft 344 kts 130°
2026-05-06 11:32 36.72335 26.83571 13137 ft 333 kts 130°
2026-05-06 11:33 36.70795 26.85687 12829 ft 329 kts 130°
2026-05-06 11:33 36.69367 26.87873 12343 ft 321 kts 119°
2026-05-06 11:33 36.68344 26.90291 11867 ft 312 kts 112°
2026-05-06 11:33 36.67389 26.92701 11379 ft 308 kts 113°
2026-05-06 11:34 36.66445 26.95067 10891 ft 303 kts 113°
2026-05-06 11:34 36.65511 26.97401 10411 ft 298 kts 113°
2026-05-06 11:34 36.64594 26.99689 9947 ft 293 kts 113°
2026-05-06 11:34 36.63700 27.01912 9427 ft 289 kts 113°
2026-05-06 11:35 36.62806 27.04128 8907 ft 284 kts 113°
2026-05-06 11:35 36.61928 27.06306 8395 ft 279 kts 112°
2026-05-06 11:35 36.61065 27.08451 7892 ft 275 kts 112°
2026-05-06 11:35 36.60214 27.10566 7394 ft 271 kts 112°
2026-05-06 11:36 36.59375 27.12647 6905 ft 267 kts 111°
2026-05-06 11:36 36.58296 27.14530 6417 ft 272 kts 135°
2026-05-06 11:36 36.56631 27.15666 5907 ft 277 kts 166°
2026-05-06 11:36 36.54734 27.15731 5386 ft 272 kts 195°
2026-05-06 11:37 36.53066 27.14759 4959 ft 258 kts 224°
2026-05-06 11:37 36.51978 27.13145 4836 ft 233 kts 248°
2026-05-06 11:37 36.51497 27.11313 4537 ft 217 kts 270°
2026-05-06 11:37 36.51582 27.09493 4142 ft 208 kts 290°
2026-05-06 11:38 36.52093 27.07846 4031 ft 205 kts 300°
2026-05-06 11:38 36.52866 27.06371 4024 ft 203 kts 317°
2026-05-06 11:38 36.53967 27.05301 4024 ft 200 kts 335°
2026-05-06 11:38 36.55268 27.04743 4025 ft 198 kts 353°
2026-05-06 11:39 36.56630 27.04742 4029 ft 196 kts 10°
2026-05-06 11:39 36.57893 27.05271 3806 ft 195 kts 27°
2026-05-06 11:39 36.58973 27.06313 3488 ft 199 kts 46°
2026-05-06 11:39 36.59723 27.07764 3200 ft 202 kts 65°
2026-05-06 11:40 36.60048 27.09813 3022 ft 208 kts 89°
2026-05-06 11:40 36.59342 27.13355 3000 ft 214 kts 89°
2026-05-06 11:40 36.61053 27.15760 3072 ft 203 kts 12°
2026-05-06 11:40 36.63804 27.16358 3023 ft 198 kts 10°
2026-05-06 11:41 36.66518 27.16950 2539 ft 199 kts
2026-05-06 11:41 36.69455 27.17573 2000 ft 197 kts 358°
2026-05-06 11:41 36.70767 27.17154 2029 ft 196 kts 330°
2026-05-06 11:41 36.71824 27.16204 2032 ft 179 kts 323°
2026-05-06 11:42 36.72767 27.15313 2024 ft 160 kts 323°
2026-05-06 11:42 36.73591 27.14475 1896 ft 151 kts 315°
2026-05-06 11:42 36.74283 27.13508 1597 ft 148 kts 311°
2026-05-06 11:42 36.74997 27.12602 1315 ft 144 kts 322°
2026-05-06 11:43 36.75847 27.11921 932 ft 148 kts 330°
2026-05-06 11:43 36.76724 27.11260 751 ft 143 kts 328°
2026-05-06 11:43 36.77561 27.10610 622 ft 140 kts 328°
2026-05-06 11:44 36.79169 27.09334 409 ft 137 kts 328°
2026-05-06 11:44 36.79653 27.08987 418 ft 10 kts
2026-05-06 11:44 36.79717 27.08987 419 ft 11 kts
2026-05-06 11:44 36.79798 27.08985 416 ft 12 kts 358°
2026-05-06 11:45 36.79884 27.08981 414 ft 13 kts 359°
2026-05-06 11:45 36.79969 27.08959 415 ft 13 kts 330°
2026-05-06 11:45 36.80045 27.08898 413 ft 13 kts 328°
2026-05-06 11:45 36.80107 27.08944 417 ft 12 kts 58°
2026-05-06 11:46 36.80114 27.08959 411 ft 0 kts 58°